Tracking 28081 objects as of 26-Sep-2023
HD Live streaming from Space Station
objects crossing your sky now

COSMOS 1823 DEB

Track COSMOS 1823 DEB now!
10-day predictions


NORAD ID: 20285
Int'l Code: 1987-020DP
Perigee: 1,492.6 km
Apogee: 1,617.9 km
Inclination: 73.6 °
Period: 117.0 minutes
Semi major axis: 7926 km
RCS: 0.0247 m2 (small)
Launch date: February 20, 1987
Source: Commonwealth of Independent States (former USSR) (CIS)
Launch site: PLESETSK MISSILE AND SPACE COMPLEX (PKMTR)

Note: This is SATELLITE DEBRIS
Your satellite tracking list
Your tracking list is empty




NASA's NSSDC Master Catalog

Two Line Element Set (TLE):
1 20285U 87020DP  23267.24361774 -.00000196  00000-0 -15066-2 0  9996
2 20285  73.6480   6.6119 0079075 186.6262 199.1500 12.30270638475743
Source of the keplerian elements: AFSPC